Skip Page Navigation
NASA JPL Caltech
NASA Logo - Jet Propulsion Laboratory + View the NASA Portal
+ Center for Near-Earth Object Studies
JPL Home Earth Solar System Stars & Galaxies Technology
JPL Solar System Dynamics
BODIES ORBITS EPHEMERIDES TOOLS PHYSICAL DATA DISCOVERY FAQ SITE MAP
JPL Small-Body Database Browser
Search: [ help ]  
359937 (2011 YQ24)
Classification: Jupiter Trojan          SPK-ID: 2359937
Ephemeris | Orbit Diagram | Orbital Elements | Mission Design | Physical Parameters | Discovery Circumstances ]

[ show orbit diagram ]
Orbital Elements at Epoch 2459000.5 (2020-May-31.0) TDB
Reference: JPL 12 (heliocentric ecliptic J2000)
 Element Value Uncertainty (1-sigma)   Units 
e .03854676169979067 1.4667e-07  
a 5.252026020353794 4.1137e-07 au
q 5.049577424906117 1.1222e-06 au
i 9.715462508160796 7.6429e-06 deg
node 102.4623620174489 5.7225e-05 deg
peri 295.819474062204 0.00013607 deg
M 326.5546604605558 0.00012567 deg
tp 2459408.933954231589
(2021-Jul-13.43395423)
0.0015339 TDB
period 4396.314271229414
12.04
0.00051652
1.414e-06
d
yr
n .08188677555558994 9.6209e-09 deg/d
Q 5.454474615801472 4.2723e-07 au
  Orbit Determination Parameters
   # obs. used (total)      121  
   data-arc span      7253 days (19.86 yr)  
   first obs. used      1999-12-05  
   last obs. used      2019-10-14  
   planetary ephem.      DE431  
   SB-pert. ephem.      SB431-N16  
   condition code      0  
   norm. resid. RMS      .56935  
   source      ORB  
   producer      Otto Matic  
   solution date      2019-Nov-08 11:18:46  

Additional Information
 Earth MOID = 4.07183 au 
 Jupiter MOID = .0375172 au 
 T_jup = 2.970 
[ show covariance matrix ]

Ephemeris | Orbit Diagram | Orbital Elements | Mission Design | Physical Parameters | Discovery Circumstances ]

Physical Parameter Table
Parameter Symbol Value Units Sigma Reference Notes
absolute magnitude H 13.4   n/a MPO427818  

359937 (2011 YQ24)          Discovered 1999-Dec-05 by Spacewatch at Kitt Peak
Reference: 20130327/Numbers.arcLast Updated: 2013-03-29
Ephemeris | Orbit Diagram | Orbital Elements | Mission Design | Physical Parameters | Discovery Circumstances ]
ABOUT SSD CREDITS/AWARDS PRIVACY/COPYRIGHT GLOSSARY LINKS
FirstGov 2020-Jul-08 09:00 UT
(server date/time)  
NASA Home Page
Site Manager:   Ryan S. Park
Webmaster  Alan B. Chamberlin